Tracking 30102 objects as of 12-Dec-2024
HD Live streaming from Space Station
objects crossing your sky now

STARLINK-32408

Track STARLINK-32408 now!
10-day predictions
STARLINK-32408 is classified as:


NORAD ID: 62054
Int'l Code: 2024-216Y
Perigee: 408.3 km
Apogee: 410.0 km
Inclination: 43.0 °
Period: 92.6 minutes
Semi major axis: 6780 km
RCS: Unknown
Launch date: November 21, 2024
Source: United States (US)
Launch site: AIR FORCE EASTERN TEST RANGE (AFETR)
Your satellite tracking list
Your tracking list is empty




NASA's NSSDC Master Catalog

Two Line Element Set (TLE):
1 62054U 24216Y   24346.91667824 -.01469300  00000-0 -23858-1 0  9996
2 62054  42.9993 316.6016 0001267 259.3974  14.8677 15.55049649  4402
Source of the keplerian elements: AFSPC